owner,sensor,date,latitude,longitude,sea_water_turbidity,qcFlag 
NERRS,ioos:station:NOAA.NERRS:apaebwq:1,2015-12-01T00:45:00Z,29.7858,-84.8752,8.0,1111122 
NERRS,ioos:station:NOAA.NERRS:apaebwq:1,2015-12-01T01:45:00Z,29.7858,-84.8752,6.0,1111122 
NERRS,ioos:station:NOAA.NERRS:apaebwq:1,2015-12-01T02:45:00Z,29.7858,-84.8752,8.0,1111122 
NERRS,ioos:station:NOAA.NERRS:apaebwq:1,2015-12-01T04:45:00Z,29.7858,-84.8752,4.0,1111122 
NERRS,ioos:station:NOAA.NERRS:apaebwq:1,2015-12-01T05:45:00Z,29.7858,-84.8752,3.0,1111122 
NERRS,ioos:station:NOAA.NERRS:apaebwq:1,2015-12-01T06:45:00Z,29.7858,-84.8752,3.0,1111122 
NERRS,ioos:station:NOAA.NERRS:apaebwq:1,2015-12-01T07:45:00Z,29.7858,-84.8752,3.0,1111122 
NERRS,ioos:station:NOAA.NERRS:apaebwq:1,2015-12-01T08:45:00Z,29.7858,-84.8752,5.0,1111122 
NERRS,ioos:station:NOAA.NERRS:apaebwq:1,2015-12-01T09:45:00Z,29.7858,-84.8752,6.0,1111122 
NERRS,ioos:station:NOAA.NERRS:apaebwq:1,2015-12-01T10:45:00Z,29.7858,-84.8752,6.0,1111122 
NERRS,ioos:station:NOAA.NERRS:apaebwq:1,2015-12-01T11:45:00Z,29.7858,-84.8752,6.0,1111122 
NERRS,ioos:station:NOAA.NERRS:apaebwq:1,2015-12-01T12:45:00Z,29.7858,-84.8752,3.0,1111122 
NERRS,ioos:station:NOAA.NERRS:apaebwq:1,2015-12-01T13:45:00Z,29.7858,-84.8752,6.0,1111122 
NERRS,ioos:station:NOAA.NERRS:apaebwq:1,2015-12-01T15:45:00Z,29.7858,-84.8752,10.0,1111122 
NERRS,ioos:station:NOAA.NERRS:apaebwq:1,2015-12-01T16:45:00Z,29.7858,-84.8752,6.0,1111122 
NERRS,ioos:station:NOAA.NERRS:apaebwq:1,2015-12-01T17:45:00Z,29.7858,-84.8752,6.0,1111122 
NERRS,ioos:station:NOAA.NERRS:apaebwq:1,2015-12-01T18:45:00Z,29.7858,-84.8752,7.0,1111122 
NERRS,ioos:station:NOAA.NERRS:apaebwq:1,2015-12-01T19:45:00Z,29.7858,-84.8752,10.0,1111122 
NERRS,ioos:station:NOAA.NERRS:apaebwq:1,2015-12-01T20:45:00Z,29.7858,-84.8752,9.0,1111122 
NERRS,ioos:station:NOAA.NERRS:apaebwq:1,2015-12-01T21:45:00Z,29.7858,-84.8752,7.0,1111122 
NERRS,ioos:station:NOAA.NERRS:apaebwq:1,2015-12-01T22:45:00Z,29.7858,-84.8752,8.0,1111122 
NERRS,ioos:station:NOAA.NERRS:apaebwq:1,2015-12-01T23:45:00Z,29.7858,-84.8752,13.0,1111122 
NERRS,ioos:station:NOAA.NERRS:apaebwq:1,2015-12-02T00:45:00Z,29.7858,-84.8752,16.0,1111122 
NERRS,ioos:station:NOAA.NERRS:apaebwq:1,2015-12-02T01:45:00Z,29.7858,-84.8752,9.0,1111122 
NERRS,ioos:station:NOAA.NERRS:apaebwq:1,2015-12-02T02:45:00Z,29.7858,-84.8752,6.0,1111122 
NERRS,ioos:station:NOAA.NERRS:apaebwq:1,2015-12-02T03:45:00Z,29.7858,-84.8752,5.0,1111122 
NERRS,ioos:station:NOAA.NERRS:apaebwq:1,2015-12-02T05:45:00Z,29.7858,-84.8752,12.0,1111122 
NERRS,ioos:station:NOAA.NERRS:apaebwq:1,2015-12-02T06:45:00Z,29.7858,-84.8752,4.0,1111122 
NERRS,ioos:station:NOAA.NERRS:apaebwq:1,2015-12-02T07:45:00Z,29.7858,-84.8752,7.0,1111122 
NERRS,ioos:station:NOAA.NERRS:apaebwq:1,2015-12-02T08:45:00Z,29.7858,-84.8752,7.0,1111122 
NERRS,ioos:station:NOAA.NERRS:apaebwq:1,2015-12-02T10:45:00Z,29.7858,-84.8752,8.0,1111122 
NERRS,ioos:station:NOAA.NERRS:apaebwq:1,2015-12-02T11:45:00Z,29.7858,-84.8752,7.0,1111122 
NERRS,ioos:station:NOAA.NERRS:apaebwq:1,2015-12-02T12:45:00Z,29.7858,-84.8752,6.0,1111122 
NERRS,ioos:station:NOAA.NERRS:apaebwq:1,2015-12-02T13:45:00Z,29.7858,-84.8752,8.0,1111122 
NERRS,ioos:station:NOAA.NERRS:apaebwq:1,2015-12-02T14:45:00Z,29.7858,-84.8752,7.0,1111122 
NERRS,ioos:station:NOAA.NERRS:apaebwq:1,2015-12-02T16:45:00Z,29.7858,-84.8752,14.0,1111122 
NERRS,ioos:station:NOAA.NERRS:apaebwq:1,2015-12-02T17:45:00Z,29.7858,-84.8752,15.0,1111122 
NERRS,ioos:station:NOAA.NERRS:apaebwq:1,2015-12-02T18:45:00Z,29.7858,-84.8752,13.0,1111122 
NERRS,ioos:station:NOAA.NERRS:apaebwq:1,2015-12-02T19:45:00Z,29.7858,-84.8752,12.0,1111122 
NERRS,ioos:station:NOAA.NERRS:apaebwq:1,2015-12-02T20:45:00Z,29.7858,-84.8752,8.0,1111122 
NERRS,ioos:station:NOAA.NERRS:apaebwq:1,2015-12-02T22:45:00Z,29.7858,-84.8752,6.0,1111122 
NERRS,ioos:station:NOAA.NERRS:apaebwq:1,2015-12-02T23:45:00Z,29.7858,-84.8752,6.0,1111122 
NERRS,ioos:station:NOAA.NERRS:apaebwq:1,2015-12-03T00:45:00Z,29.7858,-84.8752,6.0,1111122 
NERRS,ioos:station:NOAA.NERRS:apaebwq:1,2015-12-03T01:45:00Z,29.7858,-84.8752,10.0,1111122 
NERRS,ioos:station:NOAA.NERRS:apaebwq:1,2015-12-03T02:45:00Z,29.7858,-84.8752,8.0,1111122 
NERRS,ioos:station:NOAA.NERRS:apaebwq:1,2015-12-03T04:45:00Z,29.7858,-84.8752,9.0,1111122 
NERRS,ioos:station:NOAA.NERRS:apaebwq:1,2015-12-03T06:45:00Z,29.7858,-84.8752,8.0,1111122 
NERRS,ioos:station:NOAA.NERRS:apaebwq:1,2015-12-03T07:45:00Z,29.7858,-84.8752,11.0,1111122 
NERRS,ioos:station:NOAA.NERRS:apaebwq:1,2015-12-03T08:45:00Z,29.7858,-84.8752,10.0,1111122 
NERRS,ioos:station:NOAA.NERRS:apaebwq:1,2015-12-03T09:45:00Z,29.7858,-84.8752,12.0,1111122 
NERRS,ioos:station:NOAA.NERRS:apaebwq:1,2015-12-03T10:45:00Z,29.7858,-84.8752,13.0,1111122 
NERRS,ioos:station:NOAA.NERRS:apaebwq:1,2015-12-03T11:45:00Z,29.7858,-84.8752,11.0,1111122 
NERRS,ioos:station:NOAA.NERRS:apaebwq:1,2015-12-03T12:45:00Z,29.7858,-84.8752,13.0,1111122 
NERRS,ioos:station:NOAA.NERRS:apaebwq:1,2015-12-03T13:45:00Z,29.7858,-84.8752,8.0,1111122 
NERRS,ioos:station:NOAA.NERRS:apaebwq:1,2015-12-03T14:45:00Z,29.7858,-84.8752,9.0,1111122 
NERRS,ioos:station:NOAA.NERRS:apaebwq:1,2015-12-03T15:45:00Z,29.7858,-84.8752,9.0,1111122 
NERRS,ioos:station:NOAA.NERRS:apaebwq:1,2015-12-03T16:45:00Z,29.7858,-84.8752,23.0,1111122 
NERRS,ioos:station:NOAA.NERRS:apaebwq:1,2015-12-03T17:45:00Z,29.7858,-84.8752,10.0,1111122 
NERRS,ioos:station:NOAA.NERRS:apaebwq:1,2015-12-03T18:45:00Z,29.7858,-84.8752,20.0,1111122 
NERRS,ioos:station:NOAA.NERRS:apaebwq:1,2015-12-03T20:45:00Z,29.7858,-84.8752,20.0,1111122 
NERRS,ioos:station:NOAA.NERRS:apaebwq:1,2015-12-03T21:45:00Z,29.7858,-84.8752,19.0,1111122 
NERRS,ioos:station:NOAA.NERRS:apaebwq:1,2015-12-03T22:45:00Z,29.7858,-84.8752,15.0,1111122 
NERRS,ioos:station:NOAA.NERRS:apaebwq:1,2015-12-03T23:45:00Z,29.7858,-84.8752,10.0,1111122 
NERRS,ioos:station:NOAA.NERRS:apaebwq:1,2015-12-04T00:45:00Z,29.7858,-84.8752,18.0,1111122 
NERRS,ioos:station:NOAA.NERRS:apaebwq:1,2015-12-04T01:45:00Z,29.7858,-84.8752,14.0,1111122 
NERRS,ioos:station:NOAA.NERRS:apaebwq:1,2015-12-04T02:45:00Z,29.7858,-84.8752,14.0,1111122 
NERRS,ioos:station:NOAA.NERRS:apaebwq:1,2015-12-04T03:45:00Z,29.7858,-84.8752,16.0,1111122 
NERRS,ioos:station:NOAA.NERRS:apaebwq:1,2015-12-04T04:45:00Z,29.7858,-84.8752,9.0,1111122 
NERRS,ioos:station:NOAA.NERRS:apaebwq:1,2015-12-04T05:45:00Z,29.7858,-84.8752,9.0,1111122 
NERRS,ioos:station:NOAA.NERRS:apaebwq:1,2015-12-04T06:45:00Z,29.7858,-84.8752,10.0,1111122 
NERRS,ioos:station:NOAA.NERRS:apaebwq:1,2015-12-04T07:45:00Z,29.7858,-84.8752,8.0,1111122 
NERRS,ioos:station:NOAA.NERRS:apaebwq:1,2015-12-04T08:45:00Z,29.7858,-84.8752,14.0,1111122 
NERRS,ioos:station:NOAA.NERRS:apaebwq:1,2015-12-04T10:45:00Z,29.7858,-84.8752,11.0,1111122 
NERRS,ioos:station:NOAA.NERRS:apaebwq:1,2015-12-04T11:45:00Z,29.7858,-84.8752,7.0,1111122 
NERRS,ioos:station:NOAA.NERRS:apaebwq:1,2015-12-04T12:45:00Z,29.7858,-84.8752,9.0,1111122 
NERRS,ioos:station:NOAA.NERRS:apaebwq:1,2015-12-04T13:45:00Z,29.7858,-84.8752,12.0,1111122 
NERRS,ioos:station:NOAA.NERRS:apaebwq:1,2015-12-04T14:45:00Z,29.7858,-84.8752,15.0,1111122 
NERRS,ioos:station:NOAA.NERRS:apaebwq:1,2015-12-04T15:45:00Z,29.7858,-84.8752,13.0,1111122 
NERRS,ioos:station:NOAA.NERRS:apaebwq:1,2015-12-04T16:45:00Z,29.7858,-84.8752,25.0,1111122 
NERRS,ioos:station:NOAA.NERRS:apaebwq:1,2015-12-04T17:45:00Z,29.7858,-84.8752,18.0,1111122 
NERRS,ioos:station:NOAA.NERRS:apaebwq:1,2015-12-05T00:45:00Z,29.7858,-84.8752,14.0,1111122 
NERRS,ioos:station:NOAA.NERRS:apaebwq:1,2015-12-05T06:45:00Z,29.7858,-84.8752,7.0,1111122 
NERRS,ioos:station:NOAA.NERRS:apaebwq:1,2015-12-05T18:45:00Z,29.7858,-84.8752,30.0,1111122 
NERRS,ioos:station:NOAA.NERRS:apaebwq:1,2015-12-06T00:45:00Z,29.7858,-84.8752,13.0,1111122 
NERRS,ioos:station:NOAA.NERRS:apaebwq:1,2015-12-06T06:45:00Z,29.7858,-84.8752,7.0,1111122 
NERRS,ioos:station:NOAA.NERRS:apaebwq:1,2015-12-06T08:45:00Z,29.7858,-84.8752,10.0,1111122 
NERRS,ioos:station:NOAA.NERRS:apaebwq:1,2015-12-06T16:45:00Z,29.7858,-84.8752,13.0,1111122 
NERRS,ioos:station:NOAA.NERRS:apaebwq:1,2015-12-06T17:45:00Z,29.7858,-84.8752,15.0,1111122 
NERRS,ioos:station:NOAA.NERRS:apaebwq:1,2015-12-06T18:45:00Z,29.7858,-84.8752,14.0,1111122 
NERRS,ioos:station:NOAA.NERRS:apaebwq:1,2015-12-06T19:45:00Z,29.7858,-84.8752,10.0,1111122 
NERRS,ioos:station:NOAA.NERRS:apaebwq:1,2015-12-06T20:45:00Z,29.7858,-84.8752,11.0,1111122 
NERRS,ioos:station:NOAA.NERRS:apaebwq:1,2015-12-06T21:45:00Z,29.7858,-84.8752,11.0,1111122 
NERRS,ioos:station:NOAA.NERRS:apaebwq:1,2015-12-06T22:45:00Z,29.7858,-84.8752,10.0,1111122 
NERRS,ioos:station:NOAA.NERRS:apaebwq:1,2015-12-06T23:45:00Z,29.7858,-84.8752,11.0,1111122 
NERRS,ioos:station:NOAA.NERRS:apaebwq:1,2015-12-07T01:45:00Z,29.7858,-84.8752,10.0,1111122 
NERRS,ioos:station:NOAA.NERRS:apaebwq:1,2015-12-07T02:45:00Z,29.7858,-84.8752,9.0,1111122 
NERRS,ioos:station:NOAA.NERRS:apaebwq:1,2015-12-07T05:45:00Z,29.7858,-84.8752,6.0,1111122 
NERRS,ioos:station:NOAA.NERRS:apaebwq:1,2015-12-07T06:45:00Z,29.7858,-84.8752,4.0,1111122 
NERRS,ioos:station:NOAA.NERRS:apaebwq:1,2015-12-07T08:45:00Z,29.7858,-84.8752,7.0,1111122 
NERRS,ioos:station:NOAA.NERRS:apaebwq:1,2015-12-07T09:45:00Z,29.7858,-84.8752,7.0,1111122 
NERRS,ioos:station:NOAA.NERRS:apaebwq:1,2015-12-07T13:45:00Z,29.7858,-84.8752,8.0,1111122 
NERRS,ioos:station:NOAA.NERRS:apaebwq:1,2015-12-07T14:45:00Z,29.7858,-84.8752,7.0,1111122 
NERRS,ioos:station:NOAA.NERRS:apaebwq:1,2015-12-07T15:45:00Z,29.7858,-84.8752,11.0,1111122 
NERRS,ioos:station:NOAA.NERRS:apaebwq:1,2015-12-07T16:45:00Z,29.7858,-84.8752,12.0,1111122 
NERRS,ioos:station:NOAA.NERRS:apaebwq:1,2015-12-07T18:45:00Z,29.7858,-84.8752,9.0,1111122 
NERRS,ioos:station:NOAA.NERRS:apaebwq:1,2015-12-07T21:45:00Z,29.7858,-84.8752,7.0,1111122 
NERRS,ioos:station:NOAA.NERRS:apaebwq:1,2015-12-07T22:45:00Z,29.7858,-84.8752,7.0,1111122 
NERRS,ioos:station:NOAA.NERRS:apaebwq:1,2015-12-07T23:45:00Z,29.7858,-84.8752,4.0,1111122 
NERRS,ioos:station:NOAA.NERRS:apaebwq:1,2015-12-08T01:45:00Z,29.7858,-84.8752,5.0,1111122 
NERRS,ioos:station:NOAA.NERRS:apaebwq:1,2015-12-08T04:45:00Z,29.7858,-84.8752,4.0,1111122 
NERRS,ioos:station:NOAA.NERRS:apaebwq:1,2015-12-08T07:45:00Z,29.7858,-84.8752,5.0,1111122 
NERRS,ioos:station:NOAA.NERRS:apaebwq:1,2015-12-08T08:45:00Z,29.7858,-84.8752,4.0,1111122 
NERRS,ioos:station:NOAA.NERRS:apaebwq:1,2015-12-08T09:45:00Z,29.7858,-84.8752,4.0,1111122 
NERRS,ioos:station:NOAA.NERRS:apaebwq:1,2015-12-08T10:45:00Z,29.7858,-84.8752,6.0,1111122 
NERRS,ioos:station:NOAA.NERRS:apaebwq:1,2015-12-08T11:45:00Z,29.7858,-84.8752,9.0,1111122 
NERRS,ioos:station:NOAA.NERRS:apaebwq:1,2015-12-08T12:45:00Z,29.7858,-84.8752,12.0,1111122 
NERRS,ioos:station:NOAA.NERRS:apaebwq:1,2015-12-08T15:45:00Z,29.7858,-84.8752,8.0,1111122 
NERRS,ioos:station:NOAA.NERRS:apaebwq:1,2015-12-08T16:45:00Z,29.7858,-84.8752,6.0,1111122 
NERRS,ioos:station:NOAA.NERRS:apaebwq:1,2015-12-08T17:45:00Z,29.7858,-84.8752,6.0,1111122 
NERRS,ioos:station:NOAA.NERRS:apaebwq:1,2015-12-08T21:45:00Z,29.7858,-84.8752,6.0,1111122 
NERRS,ioos:station:NOAA.NERRS:apaebwq:1,2015-12-08T22:45:00Z,29.7858,-84.8752,8.0,1111122 
NERRS,ioos:station:NOAA.NERRS:apaebwq:1,2015-12-08T23:45:00Z,29.7858,-84.8752,5.0,1111122 
NERRS,ioos:station:NOAA.NERRS:apaebwq:1,2015-12-09T00:45:00Z,29.7858,-84.8752,6.0,1111122 
NERRS,ioos:station:NOAA.NERRS:apaebwq:1,2015-12-09T01:45:00Z,29.7858,-84.8752,6.0,1111122 
NERRS,ioos:station:NOAA.NERRS:apaebwq:1,2015-12-09T03:45:00Z,29.7858,-84.8752,5.0,1111122 
NERRS,ioos:station:NOAA.NERRS:apaebwq:1,2015-12-09T04:45:00Z,29.7858,-84.8752,4.0,1111122 
NERRS,ioos:station:NOAA.NERRS:apaebwq:1,2015-12-09T05:45:00Z,29.7858,-84.8752,5.0,1111122 
NERRS,ioos:station:NOAA.NERRS:apaebwq:1,2015-12-09T06:45:00Z,29.7858,-84.8752,4.0,1111122 
NERRS,ioos:station:NOAA.NERRS:apaebwq:1,2015-12-09T07:45:00Z,29.7858,-84.8752,7.0,1111122 
NERRS,ioos:station:NOAA.NERRS:apaebwq:1,2015-12-09T08:45:00Z,29.7858,-84.8752,4.0,1111122 
NERRS,ioos:station:NOAA.NERRS:apaebwq:1,2015-12-09T09:45:00Z,29.7858,-84.8752,5.0,1111122 
NERRS,ioos:station:NOAA.NERRS:apaebwq:1,2015-12-09T10:45:00Z,29.7858,-84.8752,4.0,1111122 
NERRS,ioos:station:NOAA.NERRS:apaebwq:1,2015-12-09T11:45:00Z,29.7858,-84.8752,6.0,1111122 
NERRS,ioos:station:NOAA.NERRS:apaebwq:1,2015-12-09T15:45:00Z,29.7858,-84.8752,11.0,1111122 
NERRS,ioos:station:NOAA.NERRS:apaebwq:1,2015-12-09T16:45:00Z,29.7858,-84.8752,8.0,1111122 
NERRS,ioos:station:NOAA.NERRS:apaebwq:1,2015-12-09T18:45:00Z,29.7858,-84.8752,8.0,1111122 
NERRS,ioos:station:NOAA.NERRS:apaebwq:1,2015-12-09T19:45:00Z,29.7858,-84.8752,8.0,1111122 
NERRS,ioos:station:NOAA.NERRS:apaebwq:1,2015-12-09T20:45:00Z,29.7858,-84.8752,10.0,1111122 
NERRS,ioos:station:NOAA.NERRS:apaebwq:1,2015-12-09T21:45:00Z,29.7858,-84.8752,10.0,1111122 
NERRS,ioos:station:NOAA.NERRS:apaebwq:1,2015-12-09T22:45:00Z,29.7858,-84.8752,9.0,1111122 
NERRS,ioos:station:NOAA.NERRS:apaebwq:1,2015-12-09T23:45:00Z,29.7858,-84.8752,8.0,1111122 
NERRS,ioos:station:NOAA.NERRS:apaebwq:1,2015-12-10T00:45:00Z,29.7858,-84.8752,7.0,1111122 
NERRS,ioos:station:NOAA.NERRS:apaebwq:1,2015-12-10T02:45:00Z,29.7858,-84.8752,12.0,1111122 
NERRS,ioos:station:NOAA.NERRS:apaebwq:1,2015-12-10T03:45:00Z,29.7858,-84.8752,7.0,1111122 
NERRS,ioos:station:NOAA.NERRS:apaebwq:1,2015-12-10T04:45:00Z,29.7858,-84.8752,6.0,1111122 
NERRS,ioos:station:NOAA.NERRS:apaebwq:1,2015-12-10T05:45:00Z,29.7858,-84.8752,11.0,1111122 
NERRS,ioos:station:NOAA.NERRS:apaebwq:1,2015-12-10T06:45:00Z,29.7858,-84.8752,9.0,1111122 
NERRS,ioos:station:NOAA.NERRS:apaebwq:1,2015-12-10T07:45:00Z,29.7858,-84.8752,6.0,1111122 
NERRS,ioos:station:NOAA.NERRS:apaebwq:1,2015-12-10T08:45:00Z,29.7858,-84.8752,7.0,1111122 
NERRS,ioos:station:NOAA.NERRS:apaebwq:1,2015-12-10T09:45:00Z,29.7858,-84.8752,7.0,1111122 
NERRS,ioos:station:NOAA.NERRS:apaebwq:1,2015-12-10T10:45:00Z,29.7858,-84.8752,7.0,1111122 
NERRS,ioos:station:NOAA.NERRS:apaebwq:1,2015-12-10T11:45:00Z,29.7858,-84.8752,7.0,1111122 
NERRS,ioos:station:NOAA.NERRS:apaebwq:1,2015-12-10T14:45:00Z,29.7858,-84.8752,9.0,1111122 
NERRS,ioos:station:NOAA.NERRS:apaebwq:1,2015-12-10T16:45:00Z,29.7858,-84.8752,9.0,1111122 
NERRS,ioos:station:NOAA.NERRS:apaebwq:1,2015-12-10T17:45:00Z,29.7858,-84.8752,10.0,1111122 
NERRS,ioos:station:NOAA.NERRS:apaebwq:1,2015-12-10T19:45:00Z,29.7858,-84.8752,12.0,1111122 
NERRS,ioos:station:NOAA.NERRS:apaebwq:1,2015-12-10T20:45:00Z,29.7858,-84.8752,16.0,1111122 
NERRS,ioos:station:NOAA.NERRS:apaebwq:1,2015-12-10T21:45:00Z,29.7858,-84.8752,9.0,1111122 
NERRS,ioos:station:NOAA.NERRS:apaebwq:1,2015-12-10T22:45:00Z,29.7858,-84.8752,9.0,1111122 
NERRS,ioos:station:NOAA.NERRS:apaebwq:1,2015-12-10T23:45:00Z,29.7858,-84.8752,13.0,1111122 
NERRS,ioos:station:NOAA.NERRS:apaebwq:1,2015-12-11T01:45:00Z,29.7858,-84.8752,8.0,1111122 
NERRS,ioos:station:NOAA.NERRS:apaebwq:1,2015-12-11T02:45:00Z,29.7858,-84.8752,9.0,1111122 
NERRS,ioos:station:NOAA.NERRS:apaebwq:1,2015-12-11T03:45:00Z,29.7858,-84.8752,8.0,1111122 
NERRS,ioos:station:NOAA.NERRS:apaebwq:1,2015-12-11T04:45:00Z,29.7858,-84.8752,10.0,1111122 
NERRS,ioos:station:NOAA.NERRS:apaebwq:1,2015-12-11T05:45:00Z,29.7858,-84.8752,11.0,1111122 
NERRS,ioos:station:NOAA.NERRS:apaebwq:1,2015-12-11T06:45:00Z,29.7858,-84.8752,9.0,1111122 
NERRS,ioos:station:NOAA.NERRS:apaebwq:1,2015-12-11T07:45:00Z,29.7858,-84.8752,18.0,1111122 
NERRS,ioos:station:NOAA.NERRS:apaebwq:1,2015-12-11T08:45:00Z,29.7858,-84.8752,11.0,1111122 
NERRS,ioos:station:NOAA.NERRS:apaebwq:1,2015-12-11T10:45:00Z,29.7858,-84.8752,13.0,1111122 
NERRS,ioos:station:NOAA.NERRS:apaebwq:1,2015-12-11T11:45:00Z,29.7858,-84.8752,12.0,1111122 
NERRS,ioos:station:NOAA.NERRS:apaebwq:1,2015-12-11T12:45:00Z,29.7858,-84.8752,23.0,1111122 
NERRS,ioos:station:NOAA.NERRS:apaebwq:1,2015-12-11T13:45:00Z,29.7858,-84.8752,15.0,1111122 
NERRS,ioos:station:NOAA.NERRS:apaebwq:1,2015-12-11T16:45:00Z,29.7858,-84.8752,20.0,1111122 
NERRS,ioos:station:NOAA.NERRS:apaebwq:1,2015-12-11T17:45:00Z,29.7858,-84.8752,16.0,1111122 
NERRS,ioos:station:NOAA.NERRS:apaebwq:1,2015-12-11T19:45:00Z,29.7858,-84.8752,16.0,1111122 
NERRS,ioos:station:NOAA.NERRS:apaebwq:1,2015-12-11T20:45:00Z,29.7858,-84.8752,16.0,1111122 
NERRS,ioos:station:NOAA.NERRS:apaebwq:1,2015-12-11T21:45:00Z,29.7858,-84.8752,19.0,1111122 
NERRS,ioos:station:NOAA.NERRS:apaebwq:1,2015-12-11T22:45:00Z,29.7858,-84.8752,13.0,1111122 
NERRS,ioos:station:NOAA.NERRS:apaebwq:1,2015-12-11T23:45:00Z,29.7858,-84.8752,10.0,1111122 
NERRS,ioos:station:NOAA.NERRS:apaebwq:1,2015-12-12T00:45:00Z,29.7858,-84.8752,13.0,1111122 
NERRS,ioos:station:NOAA.NERRS:apaebwq:1,2015-12-12T01:45:00Z,29.7858,-84.8752,9.0,1111122 
NERRS,ioos:station:NOAA.NERRS:apaebwq:1,2015-12-12T02:45:00Z,29.7858,-84.8752,5.0,1111122 
NERRS,ioos:station:NOAA.NERRS:apaebwq:1,2015-12-12T03:45:00Z,29.7858,-84.8752,5.0,1111122 
NERRS,ioos:station:NOAA.NERRS:apaebwq:1,2015-12-12T04:45:00Z,29.7858,-84.8752,11.0,1111122 
NERRS,ioos:station:NOAA.NERRS:apaebwq:1,2015-12-12T05:45:00Z,29.7858,-84.8752,10.0,1111122 
NERRS,ioos:station:NOAA.NERRS:apaebwq:1,2015-12-12T06:45:00Z,29.7858,-84.8752,9.0,1111122 
NERRS,ioos:station:NOAA.NERRS:apaebwq:1,2015-12-12T07:45:00Z,29.7858,-84.8752,12.0,1111122 
NERRS,ioos:station:NOAA.NERRS:apaebwq:1,2015-12-12T08:45:00Z,29.7858,-84.8752,8.0,1111122 
NERRS,ioos:station:NOAA.NERRS:apaebwq:1,2015-12-12T09:45:00Z,29.7858,-84.8752,9.0,1111122 
NERRS,ioos:station:NOAA.NERRS:apaebwq:1,2015-12-12T10:45:00Z,29.7858,-84.8752,10.0,1111122 
NERRS,ioos:station:NOAA.NERRS:apaebwq:1,2015-12-12T11:45:00Z,29.7858,-84.8752,10.0,1111122 
NERRS,ioos:station:NOAA.NERRS:apaebwq:1,2015-12-12T12:45:00Z,29.7858,-84.8752,10.0,1111122 
NERRS,ioos:station:NOAA.NERRS:apaebwq:1,2015-12-12T13:45:00Z,29.7858,-84.8752,12.0,1111122 
NERRS,ioos:station:NOAA.NERRS:apaebwq:1,2015-12-12T15:45:00Z,29.7858,-84.8752,11.0,1111122 
NERRS,ioos:station:NOAA.NERRS:apaebwq:1,2015-12-12T17:45:00Z,29.7858,-84.8752,13.0,1111122 
NERRS,ioos:station:NOAA.NERRS:apaebwq:1,2015-12-12T18:45:00Z,29.7858,-84.8752,19.0,1111122 
NERRS,ioos:station:NOAA.NERRS:apaebwq:1,2015-12-12T20:45:00Z,29.7858,-84.8752,11.0,1111122 
NERRS,ioos:station:NOAA.NERRS:apaebwq:1,2015-12-12T21:45:00Z,29.7858,-84.8752,13.0,1111122 
NERRS,ioos:station:NOAA.NERRS:apaebwq:1,2015-12-12T22:45:00Z,29.7858,-84.8752,14.0,1111122 
NERRS,ioos:station:NOAA.NERRS:apaebwq:1,2015-12-12T23:45:00Z,29.7858,-84.8752,14.0,1111122 
NERRS,ioos:station:NOAA.NERRS:apaebwq:1,2015-12-13T00:45:00Z,29.7858,-84.8752,13.0,1111122 
NERRS,ioos:station:NOAA.NERRS:apaebwq:1,2015-12-13T01:45:00Z,29.7858,-84.8752,11.0,1111122 
NERRS,ioos:station:NOAA.NERRS:apaebwq:1,2015-12-13T03:45:00Z,29.7858,-84.8752,6.0,1111122 
NERRS,ioos:station:NOAA.NERRS:apaebwq:1,2015-12-13T04:45:00Z,29.7858,-84.8752,10.0,1111122 
NERRS,ioos:station:NOAA.NERRS:apaebwq:1,2015-12-13T05:45:00Z,29.7858,-84.8752,12.0,1111122 
NERRS,ioos:station:NOAA.NERRS:apaebwq:1,2015-12-13T06:45:00Z,29.7858,-84.8752,11.0,1111122 
NERRS,ioos:station:NOAA.NERRS:apaebwq:1,2015-12-13T07:45:00Z,29.7858,-84.8752,11.0,1111122 
NERRS,ioos:station:NOAA.NERRS:apaebwq:1,2015-12-13T08:45:00Z,29.7858,-84.8752,14.0,1111122 
NERRS,ioos:station:NOAA.NERRS:apaebwq:1,2015-12-13T09:45:00Z,29.7858,-84.8752,11.0,1111122 
NERRS,ioos:station:NOAA.NERRS:apaebwq:1,2015-12-13T10:45:00Z,29.7858,-84.8752,9.0,1111122 
NERRS,ioos:station:NOAA.NERRS:apaebwq:1,2015-12-13T11:45:00Z,29.7858,-84.8752,7.0,1111122 
NERRS,ioos:station:NOAA.NERRS:apaebwq:1,2015-12-13T12:45:00Z,29.7858,-84.8752,14.0,1111122 
NERRS,ioos:station:NOAA.NERRS:apaebwq:1,2015-12-13T13:45:00Z,29.7858,-84.8752,14.0,1111122 
NERRS,ioos:station:NOAA.NERRS:apaebwq:1,2015-12-13T14:45:00Z,29.7858,-84.8752,12.0,1111122 
NERRS,ioos:station:NOAA.NERRS:apaebwq:1,2015-12-13T16:45:00Z,29.7858,-84.8752,12.0,1111122 
NERRS,ioos:station:NOAA.NERRS:apaebwq:1,2015-12-13T17:45:00Z,29.7858,-84.8752,13.0,1111122 
NERRS,ioos:station:NOAA.NERRS:apaebwq:1,2015-12-13T18:45:00Z,29.7858,-84.8752,20.0,1111122 
NERRS,ioos:station:NOAA.NERRS:apaebwq:1,2015-12-13T19:45:00Z,29.7858,-84.8752,16.0,1111122 
NERRS,ioos:station:NOAA.NERRS:apaebwq:1,2015-12-13T20:45:00Z,29.7858,-84.8752,12.0,1111122 
NERRS,ioos:station:NOAA.NERRS:apaebwq:1,2015-12-13T21:45:00Z,29.7858,-84.8752,18.0,1111122 
NERRS,ioos:station:NOAA.NERRS:apaebwq:1,2015-12-13T22:45:00Z,29.7858,-84.8752,13.0,1111122 
NERRS,ioos:station:NOAA.NERRS:apaebwq:1,2015-12-13T23:45:00Z,29.7858,-84.8752,16.0,1111122 
NERRS,ioos:station:NOAA.NERRS:apaebwq:1,2015-12-14T00:45:00Z,29.7858,-84.8752,15.0,1111122 
NERRS,ioos:station:NOAA.NERRS:apaebwq:1,2015-12-14T01:45:00Z,29.7858,-84.8752,12.0,1111122 
NERRS,ioos:station:NOAA.NERRS:apaebwq:1,2015-12-14T02:45:00Z,29.7858,-84.8752,19.0,1111122 
NERRS,ioos:station:NOAA.NERRS:apaebwq:1,2015-12-14T03:45:00Z,29.7858,-84.8752,14.0,1111122 
NERRS,ioos:station:NOAA.NERRS:apaebwq:1,2015-12-14T04:45:00Z,29.7858,-84.8752,17.0,1111122 
NERRS,ioos:station:NOAA.NERRS:apaebwq:1,2015-12-14T05:45:00Z,29.7858,-84.8752,16.0,1111122 
NERRS,ioos:station:NOAA.NERRS:apaebwq:1,2015-12-14T06:45:00Z,29.7858,-84.8752,16.0,1111122 
NERRS,ioos:station:NOAA.NERRS:apaebwq:1,2015-12-14T09:45:00Z,29.7858,-84.8752,13.0,1111122 
NERRS,ioos:station:NOAA.NERRS:apaebwq:1,2015-12-14T10:45:00Z,29.7858,-84.8752,14.0,1111122 
NERRS,ioos:station:NOAA.NERRS:apaebwq:1,2015-12-14T11:45:00Z,29.7858,-84.8752,18.0,1111122 
NERRS,ioos:station:NOAA.NERRS:apaebwq:1,2015-12-14T12:45:00Z,29.7858,-84.8752,19.0,1111122 
NERRS,ioos:station:NOAA.NERRS:apaebwq:1,2015-12-14T14:45:00Z,29.7858,-84.8752,17.0,1111122 
NERRS,ioos:station:NOAA.NERRS:apaebwq:1,2015-12-14T15:45:00Z,29.7858,-84.8752,21.0,1111122 
NERRS,ioos:station:NOAA.NERRS:apaebwq:1,2015-12-14T16:45:00Z,29.7858,-84.8752,20.0,1111122 
NERRS,ioos:station:NOAA.NERRS:apaebwq:1,2015-12-14T20:45:00Z,29.7858,-84.8752,23.0,1111122 
NERRS,ioos:station:NOAA.NERRS:apaebwq:1,2015-12-14T21:45:00Z,29.7858,-84.8752,21.0,1111122 
NERRS,ioos:station:NOAA.NERRS:apaebwq:1,2015-12-14T22:45:00Z,29.7858,-84.8752,25.0,1111122 
NERRS,ioos:station:NOAA.NERRS:apaebwq:1,2015-12-14T23:45:00Z,29.7858,-84.8752,25.0,1111122 
NERRS,ioos:station:NOAA.NERRS:apaebwq:1,2015-12-15T00:45:00Z,29.7858,-84.8752,25.0,1111122 
NERRS,ioos:station:NOAA.NERRS:apaebwq:1,2015-12-15T01:45:00Z,29.7858,-84.8752,24.0,1111122 
NERRS,ioos:station:NOAA.NERRS:apaebwq:1,2015-12-15T02:45:00Z,29.7858,-84.8752,32.0,1111122 
NERRS,ioos:station:NOAA.NERRS:apaebwq:1,2015-12-15T03:45:00Z,29.7858,-84.8752,23.0,1111122 
NERRS,ioos:station:NOAA.NERRS:apaebwq:1,2015-12-15T04:45:00Z,29.7858,-84.8752,28.0,1111122 
NERRS,ioos:station:NOAA.NERRS:apaebwq:1,2015-12-15T05:45:00Z,29.7858,-84.8752,24.0,1111122 
NERRS,ioos:station:NOAA.NERRS:apaebwq:1,2015-12-15T06:45:00Z,29.7858,-84.8752,26.0,1111122 
NERRS,ioos:station:NOAA.NERRS:apaebwq:1,2015-12-15T07:45:00Z,29.7858,-84.8752,35.0,1111122 
NERRS,ioos:station:NOAA.NERRS:apaebwq:1,2015-12-15T08:45:00Z,29.7858,-84.8752,31.0,1111122 
NERRS,ioos:station:NOAA.NERRS:apaebwq:1,2015-12-15T09:45:00Z,29.7858,-84.8752,30.0,1111122 
NERRS,ioos:station:NOAA.NERRS:apaebwq:1,2015-12-15T10:45:00Z,29.7858,-84.8752,39.0,1111122 
NERRS,ioos:station:NOAA.NERRS:apaebwq:1,2015-12-15T11:45:00Z,29.7858,-84.8752,27.0,1111122 
NERRS,ioos:station:NOAA.NERRS:apaebwq:1,2015-12-15T12:45:00Z,29.7858,-84.8752,29.0,1111122 
NERRS,ioos:station:NOAA.NERRS:apaebwq:1,2015-12-15T14:45:00Z,29.7858,-84.8752,6.0,1111122 
NERRS,ioos:station:NOAA.NERRS:apaebwq:1,2015-12-15T15:45:00Z,29.7858,-84.8752,13.0,1111122 
NERRS,ioos:station:NOAA.NERRS:apaebwq:1,2015-12-15T16:45:00Z,29.7858,-84.8752,9.0,1111122 
NERRS,ioos:station:NOAA.NERRS:apaebwq:1,2015-12-15T17:45:00Z,29.7858,-84.8752,4.0,1111122 
NERRS,ioos:station:NOAA.NERRS:apaebwq:1,2015-12-15T18:45:00Z,29.7858,-84.8752,6.0,1111122 
NERRS,ioos:station:NOAA.NERRS:apaebwq:1,2015-12-15T19:45:00Z,29.7858,-84.8752,6.0,1111122 
NERRS,ioos:station:NOAA.NERRS:apaebwq:1,2015-12-15T20:45:00Z,29.7858,-84.8752,5.0,1111122 
NERRS,ioos:station:NOAA.NERRS:apaebwq:1,2015-12-15T21:45:00Z,29.7858,-84.8752,2.0,1111122 